[[{"header":{"parameterUnit":"m.s-1","parameterCategory":1,"la1":30.2991,"la2":30.254,"lo1":-89.0895,"lo2":-89.0444,"dy":0.0017,"dx":0.0017,"nx":28,"ny":28,"refTime":"2025-01-01T03:00:00:Z","depth":0,"parameterNumber":2,"parameterNumberName":"U-component_of_WINDS"},"data":[0,0,0,0,0,0,0,0,0,0,0,0,0,0,0,0,0,0,0,0,0,0,0,0,0,0,0,0,0,0,0,0,0,0,0,0,0,0,0,0,0,0,0,0,0,0,0,0,0,0,0,0,0,0,0,0,0,0,0.3884,0.3884,0,0.39,0.39,0.39,0.3924,0.3924,0.3925,0.3925,0.394,0.394,0.394,0,0,0,0,0,0,0,0,0,0,0,0,0,0.3872,0.3872,0.3884,0.3884,0.3884,0.39,0.39,0.39,0.3924,0.3924,0.3925,0.3925,0.394,0.394,0.394,0,0,0,0,0,0,0,0,0,0,0,0,0,0.3882,0.3872,0.3884,0.3898,0.3899,0.39,0.39,0.3901,0.3924,0.3924,0.3925,0.3925,0.394,0.394,0.394,0.3928,0,0,0.394,0.394,0,0,0,0,0,0,0,0,0.3881,0.3882,0.3895,0.3897,0.3898,0.3911,0.3902,0.391,0.3923,0.3914,0.3925,0.3926,0.393,0.3931,0.3932,0.3929,0.393,0.394,0.394,0.3941,0.3941,0,0,0,0,0,0,0,0.388,0.3881,0.389,0.3896,0.3897,0.3903,0.3905,0.3903,0.3918,0.3915,0.3917,0.3919,0.3931,0.3932,0.3933,0.393,0.394,0.3941,0.3941,0.3941,0.3918,0.3917,0,0,0,0,0,0,0.3878,0.3881,0.389,0.3891,0.3891,0.3903,0.3905,0.3906,0.3918,0.3921,0.3918,0.392,0.3932,0.3933,0.3934,0.392,0.3941,0.3941,0.3941,0.3919,0.3918,0.3917,0,0,0,0,0,0,0.3877,0.3878,0.3889,0.3886,0.3888,0.3902,0.3903,0.3906,0.3908,0.3921,0.3923,0.3917,0.3932,0.3934,0.393,0.3921,0.3941,0.3941,0.3919,0.3918,0.3918,0.3893,0,0,0,0,0,0,0.3877,0.3878,0.3874,0.3886,0.3888,0.3885,0.3903,0.3906,0.3908,0.391,0.392,0.3923,0.3933,0.3929,0.393,0.3921,0.3941,0.392,0.3919,0.3918,0.3895,0.3892,0.3889,0,0,0,0,0,0.3876,0.3866,0.3873,0.3874,0.3883,0.3884,0.3885,0.3898,0.3907,0.3903,0.3911,0.3922,0.3922,0.3929,0.3929,0.3921,0.3921,0.3919,0.3918,0.3896,0.3892,0.3889,0,0,0,0,0,0,0.3851,0.3868,0.3876,0.3869,0.3875,0.3888,0.3883,0.3893,0.3897,0.3898,0.3914,0.3916,0.391,0.3915,0.3922,0.391,0.3923,0.3922,0.3907,0.3903,0.39,0.3898,0.3941,0,0,0,0,0,0.3845,0.3845,0.3859,0.3852,0.3855,0.3868,0.3869,0.3879,0.3885,0.3888,0.3896,0.3902,0.3903,0.3904,0.3906,0.3897,0.3899,0.3891,0.3888,0.3886,0.3884,0.3879,0.3876,0.3913,0.3913,0.3913,0,0,0.3832,0.3841,0.384,0.3847,0.3853,0.3852,0.387,0.3869,0.3868,0.3888,0.3884,0.3891,0.3898,0.3892,0.3889,0.3896,0.3874,0.3884,0.3882,0.3881,0.3877,0.3874,0.3871,0.3912,0.3912,0.3912,0,0,0.3808,0.3815,0.3809,0.3815,0.3824,0.3833,0.3832,0.3844,0.3849,0.3846,0.3861,0.3861,0.3863,0.3867,0.387,0.3849,0.3859,0.3849,0.3833,0.3828,0.3825,0.3823,0.3815,0.3812,0.3848,0.3848,0.3847,0,0.379,0.379,0.3805,0.3803,0.3806,0.3824,0.3818,0.3823,0.3832,0.3833,0.3841,0.3845,0.3851,0.3846,0.3841,0.3842,0.3841,0.3847,0.3825,0.3822,0.382,0.3812,0.3809,0.3846,0.3846,0.3846,0.3847,0,0.3768,0.3768,0.3762,0.3771,0.3773,0.3769,0.3784,0.3784,0.3794,0.3802,0.3799,0.3808,0.3812,0.3812,0.3821,0.3808,0.3812,0.3822,0.3835,0.3815,0.3808,0.3805,0.3844,0.3845,0.3845,0.3845,0,0,0.3726,0.3744,0.3742,0.3746,0.3758,0.3758,0.3756,0.376,0.376,0.3766,0.3764,0.3766,0.3775,0.3778,0.3788,0.3785,0.3767,0.3795,0.3796,0.3789,0.3753,0.3744,0.374,0.3774,0.3774,0.3773,0.3752,0,0.3703,0.37,0.3714,0.3706,0.3706,0.3724,0.3722,0.3729,0.3737,0.3738,0.3747,0.3748,0.3761,0.3763,0.3761,0.3769,0.3759,0.3771,0.3771,0.3771,0.3768,0.3737,0.3728,0.3706,0.3749,0.3749,0.3748,0,0.3675,0.3681,0.3673,0.3686,0.3687,0.3684,0.369,0.3691,0.3699,0.3706,0.371,0.3722,0.372,0.3733,0.3731,0.3738,0.374,0.3744,0.3744,0.3743,0.3758,0.3734,0.37,0.3696,0.3744,0.3745,0.3745,0,0.3645,0.365,0.3647,0.365,0.3665,0.3663,0.3669,0.3678,0.368,0.3685,0.3687,0.3691,0.3693,0.3697,0.3709,0.3718,0.3705,0.372,0.371,0.3709,0.3705,0.3705,0.3669,0.3707,0.3708,0.3708,0.3708,0,0.3617,0.3612,0.3633,0.3631,0.3625,0.3642,0.3636,0.3644,0.3652,0.3651,0.3668,0.3667,0.3684,0.3685,0.3695,0.3691,0.3693,0.3697,0.37,0.3695,0.3694,0.3695,0.3696,0.3707,0.3707,0.3707,0.3707,0,0.3581,0.3595,0.3593,0.3608,0.3611,0.3607,0.3619,0.3618,0.3628,0.3627,0.3627,0.3643,0.3645,0.3658,0.3663,0.367,0.3662,0.3668,0.3659,0.3661,0.3649,0.365,0.3612,0.3607,0.365,0.3649,0.3649,0,0.3562,0.3558,0.3573,0.3574,0.358,0.3581,0.3584,0.36,0.3602,0.3612,0.3609,0.3613,0.3616,0.3619,0.363,0.3634,0.3639,0.3626,0.364,0.3635,0.3638,0.3638,0.3637,0.3622,0.3622,0.3621,0.3621,0,0.3525,0.3533,0.3536,0.3542,0.3545,0.355,0.3556,0.3556,0.3575,0.3576,0.3579,0.3581,0.3587,0.359,0.3596,0.3602,0.3614,0.3617,0.3615,0.3609,0.3603,0.3605,0.365,0.3617,0.3618,0.3618,0.3618,0.3618,0.3496,0.3494,0.3505,0.3508,0.3515,0.352,0.3519,0.353,0.3533,0.3539,0.3549,0.355,0.3559,0.3569,0.3574,0.3575,0.3582,0.3579,0.3578,0.3576,0.3574,0.3605,0.3576,0.3576,0.3576,0.3577,0.3577,0,0.346,0.3468,0.3471,0.348,0.3482,0.3495,0.3503,0.3504,0.3505,0.3513,0.3516,0.3519,0.3523,0.3535,0.354,0.3538,0.3544,0.3539,0.3538,0.3539,0.3567,0.3568,0.3534,0.3534,0.3534,0.3534,0.3534,0.3534,0.3441,0.3438,0.3447,0.3448,0.3456,0.3457,0.3461,0.3466,0.3472,0.3475,0.3479,0.3487,0.3497,0.3502,0.3506,0.351,0.351,0.3503,0.3508,0.3533,0.3537,0.3541,0.3542,0.3503,0.3503,0.348,0.348,0.348]},{"header":{"parameterUnit":"m.s-1","parameterCategory":1,"la1":30.2991,"la2":30.254,"lo1":-89.0895,"lo2":-89.0444,"dy":0.0017,"dx":0.0017,"nx":28,"ny":28,"refTime":"2025-01-01T03:00:00:Z","depth":0,"parameterNumber":3,"parameterNumberName":"V-component_of_WINDS"},"data":[0,0,0,0,0,0,0,0,0,0,0,0,0,0,0,0,0,0,0,0,0,0,0,0,0,0,0,0,0,0,0,0,0,0,0,0,0,0,0,0,0,0,0,0,0,0,0,0,0,0,0,0,0,0,0,0,0,0,-6.006,-6.0062,0,-6.0188,-6.019,-6.0191,-6.0109,-6.0105,-6.0101,-6.0097,-6.0228,-6.0235,-6.0242,0,0,0,0,0,0,0,0,0,0,0,0,0,-5.9744,-5.9751,-6.006,-6.0062,-6.0063,-6.0188,-6.019,-6.0191,-6.0109,-6.0105,-6.01,-6.0096,-6.0226,-6.0234,-6.0242,0,0,0,0,0,0,0,0,0,0,0,0,0,-5.9878,-5.9753,-6.006,-6.0037,-6.0037,-6.0188,-6.019,-6.0192,-6.011,-6.0105,-6.0099,-6.0094,-6.0223,-6.0233,-6.0243,-6.0423,0,0,-6.0276,-6.028,0,0,0,0,0,0,0,0,-5.987,-5.989,-6.0039,-6.0039,-6.0039,-6.0127,-6.0126,-6.0269,-6.0112,-6.0082,-6.0097,-6.0091,-6.0199,-6.0211,-6.0248,-6.0429,-6.0435,-6.0277,-6.0283,-6.0288,-6.0291,0,0,0,0,0,0,0,-5.9861,-5.9884,-6.0111,-6.0041,-6.0041,-6.0021,-6.0034,-6.0153,-6.0171,-6.0085,-6.0079,-6.0095,-6.0198,-6.0238,-6.025,-6.0437,-6.0276,-6.0286,-6.0292,-6.0296,-6.0774,-6.078,0,0,0,0,0,0,-5.9854,-5.9876,-6.0107,-6.0114,-5.9939,-6.0031,-6.0045,-6.0104,-6.017,-6.0174,-6.01,-6.0091,-6.0222,-6.0238,-6.0254,-6.0471,-6.0287,-6.0297,-6.0303,-6.0768,-6.0776,-6.0782,0,0,0,0,0,0,-5.9847,-5.9875,-6.0101,-5.9994,-6.0021,-6.0043,-6.011,-6.011,-6.015,-6.0181,-6.0184,-6.0138,-6.0218,-6.0239,-6.0382,-6.0474,-6.0302,-6.0312,-6.076,-6.077,-6.0779,-6.0904,0,0,0,0,0,0,-5.9839,-5.9873,-5.9942,-5.9996,-6.0027,-6.0228,-6.0115,-6.0116,-6.0168,-6.0158,-6.0217,-6.0222,-6.0216,-6.0367,-6.0393,-6.0485,-6.032,-6.0752,-6.0765,-6.0776,-6.0892,-6.0916,-6.0938,0,0,0,0,0,-5.9828,-5.9972,-5.9946,-5.9974,-6.0114,-6.0233,-6.0251,-6.0241,-6.0176,-6.0245,-6.0266,-6.022,-6.0459,-6.0382,-6.0411,-6.0508,-6.0746,-6.0761,-6.0775,-6.0881,-6.0912,-6.0937,0,0,0,0,0,0,-5.9927,-5.9978,-5.995,-6.0116,-6.0171,-6.0219,-6.0306,-6.0273,-6.0348,-6.0335,-6.0319,-6.0333,-6.0483,-6.0509,-6.0423,-6.0686,-6.0593,-6.0613,-6.0664,-6.0693,-6.0715,-6.0707,-6.0329,0,0,0,0,0,-5.9969,-6.0062,-6.0101,-6.0243,-6.0272,-6.0285,-6.0337,-6.0324,-6.0381,-6.0403,-6.0434,-6.049,-6.0578,-6.0636,-6.0719,-6.0894,-6.0907,-6.0975,-6.0998,-6.1017,-6.1035,-6.1132,-6.1163,-6.0829,-6.0829,-6.0829,0,0,-6.0055,-6.0094,-6.0154,-6.0264,-6.0306,-6.0403,-6.0305,-6.0411,-6.0483,-6.0419,-6.0557,-6.0581,-6.0643,-6.0804,-6.0876,-6.083,-6.113,-6.1035,-6.105,-6.1058,-6.1149,-6.1181,-6.1209,-6.0839,-6.0837,-6.0836,0,0,-6.0262,-6.0301,-6.0424,-6.0468,-6.0531,-6.0539,-6.0569,-6.0622,-6.0636,-6.0774,-6.0728,-6.0813,-6.0965,-6.1011,-6.1054,-6.128,-6.1241,-6.1307,-6.1428,-6.1522,-6.1548,-6.1571,-6.1653,-6.1683,-6.1325,-6.1325,-6.1325,0,-6.0361,-6.0506,-6.0492,-6.0603,-6.0653,-6.06,-6.0725,-6.0768,-6.0855,-6.0891,-6.0839,-6.1029,-6.1066,-6.1237,-6.1293,-6.1329,-6.1363,-6.1301,-6.1545,-6.1568,-6.159,-6.1668,-6.1699,-6.1333,-6.1332,-6.1331,-6.133,0,-6.0625,-6.0726,-6.0818,-6.0905,-6.0966,-6.1083,-6.1087,-6.115,-6.1133,-6.1146,-6.1287,-6.133,-6.1421,-6.1461,-6.1444,-6.163,-6.16,-6.1547,-6.1453,-6.163,-6.1703,-6.1732,-6.1344,-6.1341,-6.1339,-6.1337,0,0,-6.09,-6.0978,-6.1012,-6.1051,-6.1118,-6.1196,-6.131,-6.14,-6.1455,-6.1517,-6.1614,-6.1743,-6.1695,-6.1744,-6.1732,-6.1814,-6.1992,-6.1751,-6.1752,-6.1796,-6.2202,-6.2243,-6.2278,-6.1966,-6.1972,-6.1976,-6.2197,0,-6.1112,-6.1314,-6.1305,-6.1494,-6.1587,-6.1538,-6.1638,-6.169,-6.1706,-6.1787,-6.1803,-6.1897,-6.1824,-6.1854,-6.1933,-6.1954,-6.2074,-6.1938,-6.2057,-6.2062,-6.2045,-6.2316,-6.236,-6.2566,-6.2225,-6.223,-6.2234,0,-6.1387,-6.1459,-6.1658,-6.1712,-6.1751,-6.1841,-6.1923,-6.2001,-6.2059,-6.2065,-6.212,-6.2095,-6.2212,-6.2114,-6.2276,-6.2183,-6.2231,-6.2249,-6.2257,-6.2269,-6.216,-6.2337,-6.2631,-6.2663,-6.2278,-6.2275,-6.2272,0,-6.157,-6.1716,-6.1854,-6.1889,-6.1955,-6.202,-6.205,-6.2102,-6.2157,-6.2228,-6.2264,-6.2347,-6.2394,-6.2459,-6.2458,-6.2386,-6.2622,-6.2523,-6.263,-6.2631,-6.2684,-6.2681,-6.2992,-6.2712,-6.2711,-6.2711,-6.271,0,-6.1809,-6.1933,-6.1938,-6.2023,-6.216,-6.2148,-6.2285,-6.2308,-6.2355,-6.2444,-6.2406,-6.249,-6.2482,-6.2567,-6.2566,-6.2701,-6.2721,-6.273,-6.2728,-6.2735,-6.2734,-6.2767,-6.2753,-6.2719,-6.2717,-6.2716,-6.2714,0,-6.2037,-6.2045,-6.2192,-6.2243,-6.2258,-6.2357,-6.24,-6.2481,-6.2493,-6.2606,-6.2632,-6.2651,-6.2749,-6.2754,-6.2866,-6.2866,-6.303,-6.3012,-6.3012,-6.3009,-6.3116,-6.3107,-6.3461,-6.3508,-6.3196,-6.3199,-6.3201,0,-6.219,-6.2284,-6.2345,-6.2402,-6.2437,-6.2529,-6.2585,-6.2577,-6.2636,-6.271,-6.2783,-6.2877,-6.2953,-6.3112,-6.3136,-6.3222,-6.3207,-6.3325,-6.3219,-6.3223,-6.3211,-6.3206,-6.3216,-6.3346,-6.3349,-6.3352,-6.3355,0,-6.2462,-6.2461,-6.2543,-6.2628,-6.2696,-6.2762,-6.2823,-6.2872,-6.2871,-6.294,-6.3041,-6.3099,-6.3215,-6.331,-6.3394,-6.3425,-6.3391,-6.3387,-6.3417,-6.3425,-6.3422,-6.3427,-6.307,-6.338,-6.3377,-6.3375,-6.3374,-6.3373,-6.2658,-6.274,-6.2796,-6.2889,-6.2935,-6.2993,-6.3072,-6.3094,-6.3178,-6.3272,-6.3261,-6.3374,-6.3429,-6.3539,-6.3577,-6.3664,-6.3624,-6.3666,-6.3678,-6.3689,-6.3701,-6.3406,-6.3679,-6.3679,-6.3678,-6.3677,-6.3677,0,-6.2929,-6.2963,-6.3049,-6.3136,-6.321,-6.3171,-6.3236,-6.3301,-6.34,-6.3455,-6.3531,-6.3647,-6.3739,-6.377,-6.3859,-6.3923,-6.391,-6.3947,-6.3943,-6.3952,-6.3731,-6.3698,-6.3957,-6.3957,-6.3957,-6.3957,-6.3957,-6.3956,-6.3079,-6.3217,-6.3223,-6.3383,-6.3415,-6.3525,-6.3566,-6.362,-6.3664,-6.3796,-6.3873,-6.3892,-6.3938,-6.403,-6.4113,-6.412,-6.4156,-6.42,-6.4201,-6.3995,-6.3967,-6.394,-6.3908,-6.4207,-6.4208,-6.4414,-6.4415,-6.4417]}]]